Regional Weather Roundup
Issued by NWS

Home | Current Version | Previous Version | Text Only | Print | Product List | Glossary On
Versions: 1 2 3 4 5 6 7 8 9 10 11 12 13 14 15 16 17 18 19 20 21 22 23 24 25 26 27 28
000
ASUS44 KBMX 272310
RWRAL

ALABAMA REGIONAL WEATHER ROUNDUP
NATIONAL WEATHER SERVICE BIRMINGHAM AL
600 PM CDT MON MAR 27 2017

NOTE: "FAIR" INDICATES FEW OR NO CLOUDS BELOW 12,000 FEET
WITH NO SIGNIFICANT WEATHER AND/OR OBSTRUCTIONS TO VISIBILITY.

THE REMARK "TC" DENOTES TEMPERATURE IN DEGREES CELSIUS.

ALZ001>011-014-016>018-020-280000-
NORTH ALABAMA

CITY           SKY/WX    TMP DP  RH WIND       PRES   REMARKS
MUSCLE SHOALS  MOSUNNY   67  60  78 S7        29.84F
HUNTSVILLE     TSTM      63  61  93 S8        29.89R
DECATUR        RAIN      63  60  90 S15       29.84F FOG
HALEYVILLE     TSTM      63  61  93 NW6       29.91R
GADSDEN        CLOUDY    68  65  90 E3        29.88F
$$

ALZ012-013-022-023-030>036-040>044-280000-
WEST CENTRAL ALABAMA

CITY           SKY/WX    TMP DP  RH WIND       PRES   REMARKS
TUSCALOOSA     MOSUNNY   75  60  59 S9        29.87R
$$

ALZ015-024>027-033>036-040>044-280000-
CENTRAL ALABAMA

CITY           SKY/WX    TMP DP  RH WIND       PRES   REMARKS
BIRMINGHAM     CLOUDY    76  56  49 S16G23    29.89R THUNDER
MONTGOMERY     PTSUNNY   80  56  43 S13       29.91S
SHELBY CO ARPT MOSUNNY   78  58  49 S10G21    29.89S
MAXWELL AFB    CLOUDY    79  58  49 S8        29.90S
GREENVILLE     FAIR      79  55  43 S16       29.91F
$$

ALZ019-021-028-029-037-038-045>048-280000-
EAST CENTRAL ALABAMA

CITY           SKY/WX    TMP DP  RH WIND       PRES   REMARKS
ANNISTON       MOSUNNY   77  56  48 S13       29.90R
ALEXANDER CITY PTSUNNY   79  55  44 S10G16    29.92F
AUBURN         MOSUNNY   77  55  46 S13       29.96S
$$

ALZ051>064-280000-
SOUTHWEST ALABAMA

CITY           SKY/WX    TMP DP  RH WIND       PRES   REMARKS
MOBILE         CLOUDY    74  63  68 S13G21    29.97F
BROOKLEY FIELD MOSUNNY   75  68  78 S10       29.98F
EVERGREEN      SUNNY     77  60  55 S15G23    29.94F
$$

ALZ049-050-065>069-280000-
SOUTHEAST ALABAMA

CITY           SKY/WX    TMP DP  RH WIND       PRES   REMARKS
DOTHAN         SUNNY     80  55  42 SW13      29.99F
OZARK          SUNNY     79  56  45 S15       29.96S
TROY           CLOUDY    78  55  44 S12       29.95S
EUFAULA        FAIR      79  56  45 S6        29.93F
$$




USA.gov is the U.S. government's official web portal to all federal, state and local government web resources and services.